Location: Valencia
(39.4696°N, 0.3770°W)
Time: 01:00:25
(UTC+02:00)

ISS - Visible Passes

Search period start: 05 May 2016 00:00
Search period end: 15 May 2016 00:00
Orbit: 402 x 405 km, 51.6° (Epoch: 04 May)

Date Brightness Start Highest point End Pass type
(mag) Time Alt. Az. Time Alt. Az. Time Alt. Az.
06 May -0.5 06:06:26 10° SE 06:07:20 11° SE 06:08:14 10° ESE visible
08 May -1.6 05:55:36 10° SSW 05:58:24 26° SE 06:01:12 10° ENE visible
09 May -0.9 05:05:11 13° SSE 05:06:01 14° SE 05:07:45 10° E visible
10 May -3.2 05:47:22 19° SW 05:49:32 69° SE 05:52:48 10° NE visible
11 May -2.2 04:56:51 32° SE 04:57:02 33° SE 05:00:01 10° ENE visible
12 May -0.5 04:06:14 12° E 04:06:14 12° E 04:06:47 10° E visible
12 May -2.7 05:38:52 21° W 05:40:47 48° NNW 05:43:58 10° NE visible
13 May -3.4 04:48:10 86° ESE 04:48:10 86° ESE 04:51:24 10° NE visible
14 May -0.9 03:57:26 20° ENE 03:57:26 20° ENE 03:58:39 10° ENE visible
14 May -1.5 05:30:03 14° WNW 05:32:06 25° NNW 05:34:52 10° NNE visible
